Time,TemperatureF,DewpointF,PressureIn,WindDirection,WindDirectionDegrees,WindSpeedMPH,WindSpeedGustMPH,Humidity,HourlyPrecipIn,Conditions,Clouds,dailyrainin,SolarRadiationWatts/m^2,SoftwareType,DateUTC
2013-01-14 00:09:00,48.2,45.0,29.79,South,186,6.0,-999.0,89,-99.99,,,0.00,0,weatherlink.com 1.10,2013-01-14 05:09:00,
2013-01-14 00:24:00,48.0,45.0,29.78,South,189,5.0,-999.0,89,-99.99,,,0.00,0,weatherlink.com 1.10,2013-01-14 05:24:00,
2013-01-14 00:39:00,47.9,45.0,29.78,SSW,198,7.0,-999.0,90,-99.99,,,0.00,0,weatherlink.com 1.10,2013-01-14 05:39:00,
2013-01-14 00:55:00,48.0,45.0,29.79,SSE,162,9.0,-999.0,90,-99.99,,,0.00,0,weatherlink.com 1.10,2013-01-14 05:55:00,
2013-01-14 01:10:00,48.0,45.0,29.78,SSE,151,7.0,-999.0,90,-99.99,,,0.00,0,weatherlink.com 1.10,2013-01-14 06:10:00,
2013-01-14 01:25:00,48.2,46.0,29.76,SSW,193,7.0,-999.0,90,-99.99,,,0.00,0,weatherlink.com 1.10,2013-01-14 06:25:00,
2013-01-14 01:40:00,48.5,46.0,29.74,SE,143,6.0,-999.0,89,-99.99,,,0.00,0,weatherlink.com 1.10,2013-01-14 06:40:00,
2013-01-14 01:55:00,48.8,46.0,29.74,SW,227,18.0,-999.0,89,-99.99,,,0.00,0,weatherlink.com 1.10,2013-01-14 06:55:00,
2013-01-14 02:10:00,49.1,46.0,29.74,SSW,210,11.0,-999.0,88,-99.99,,,0.00,0,weatherlink.com 1.10,2013-01-14 07:10:00,
2013-01-14 02:25:00,49.2,46.0,29.76,SSW,210,0.0,-999.0,87,-99.99,,,0.00,0,weatherlink.com 1.10,2013-01-14 07:25:00,
2013-01-14 02:40:00,49.2,46.0,29.78,South,185,2.0,-999.0,87,-99.99,,,0.00,0,weatherlink.com 1.10,2013-01-14 07:40:00,
2013-01-14 02:55:00,49.6,46.0,29.77,South,186,6.0,-999.0,87,-99.99,,,0.00,0,weatherlink.com 1.10,2013-01-14 07:55:00,
2013-01-14 03:10:00,49.9,46.0,29.76,SSW,202,7.0,-999.0,87,-99.99,,,0.00,0,weatherlink.com 1.10,2013-01-14 08:10:00,
2013-01-14 03:25:00,49.9,46.0,29.75,SSW,209,8.0,-999.0,87,-99.99,,,0.00,0,weatherlink.com 1.10,2013-01-14 08:25:00,
2013-01-14 03:40:00,49.9,46.0,29.75,SW,223,7.0,-999.0,87,-99.99,,,0.00,0,weatherlink.com 1.10,2013-01-14 08:40:00,
2013-01-14 03:55:00,50.2,47.0,29.74,WSW,248,7.0,-999.0,87,-99.99,,,0.00,0,weatherlink.com 1.10,2013-01-14 08:55:00,
2013-01-14 04:10:00,51.6,48.0,29.75,SW,229,6.0,-999.0,87,-99.99,,,0.00,0,weatherlink.com 1.10,2013-01-14 09:10:00,
2013-01-14 04:25:00,52.9,49.0,29.75,WSW,250,1.0,-999.0,85,-99.99,,,0.00,0,weatherlink.com 1.10,2013-01-14 09:25:00,
2013-01-14 04:40:00,51.3,45.0,29.77,North,356,0.0,-999.0,80,-99.99,,,0.00,0,weatherlink.com 1.10,2013-01-14 09:40:00,
2013-01-14 04:55:00,50.4,46.0,29.78,NW,308,12.0,-999.0,84,-99.99,,,0.00,0,weatherlink.com 1.10,2013-01-14 09:55:00,
2013-01-14 05:10:00,46.2,42.0,29.84,NW,312,20.0,-999.0,85,-99.99,,,0.00,0,weatherlink.com 1.10,2013-01-14 10:10:00,
2013-01-14 05:25:00,44.1,40.0,29.86,NNW,340,10.0,-999.0,86,-99.99,,,0.00,0,weatherlink.com 1.10,2013-01-14 10:25:00,
2013-01-14 05:40:00,42.9,39.0,29.88,West,268,11.0,-999.0,87,-99.99,,,0.00,0,weatherlink.com 1.10,2013-01-14 10:40:00,
2013-01-14 05:55:00,41.9,39.0,29.89,NW,308,13.0,-999.0,88,-99.99,,,0.00,0,weatherlink.com 1.10,2013-01-14 10:55:00,
2013-01-14 06:10:00,41.6,39.0,29.90,NNW,329,8.0,-999.0,89,-99.99,,,0.00,0,weatherlink.com 1.10,2013-01-14 11:10:00,
2013-01-14 06:25:00,41.5,39.0,29.92,NNW,336,7.0,-999.0,89,-99.99,,,0.00,0,weatherlink.com 1.10,2013-01-14 11:25:00,
2013-01-14 06:40:00,41.3,39.0,29.92,WSW,256,2.0,-999.0,90,-99.99,,,0.00,0,weatherlink.com 1.10,2013-01-14 11:40:00,
2013-01-14 06:55:00,40.8,38.0,29.94,NW,309,19.0,-999.0,90,-99.99,,,0.00,0,weatherlink.com 1.10,2013-01-14 11:55:00,
2013-01-14 07:10:00,40.1,38.0,29.96,WNW,287,5.0,-999.0,90,-99.99,,,0.00,0,weatherlink.com 1.10,2013-01-14 12:10:00,
2013-01-14 07:25:00,39.8,37.0,29.97,West,270,6.0,-999.0,89,-99.99,,,0.00,0,weatherlink.com 1.10,2013-01-14 12:25:00,
2013-01-14 07:40:00,39.6,36.0,29.98,NNW,329,8.0,-999.0,88,-99.99,,,0.00,0,weatherlink.com 1.10,2013-01-14 12:40:00,
2013-01-14 07:55:00,39.5,36.0,30.00,NNW,333,6.0,-999.0,88,-99.99,,,0.00,0,weatherlink.com 1.10,2013-01-14 12:55:00,
2013-01-14 08:10:00,39.2,36.0,30.01,NW,326,8.0,-999.0,89,-99.99,,,0.00,7,weatherlink.com 1.10,2013-01-14 13:10:00,
2013-01-14 08:25:00,39.1,36.0,30.02,NW,311,6.0,-999.0,88,-99.99,,,0.00,18,weatherlink.com 1.10,2013-01-14 13:25:00,
2013-01-14 08:40:00,38.9,36.0,30.04,NW,325,13.0,-999.0,88,-99.99,,,0.00,11,weatherlink.com 1.10,2013-01-14 13:40:00,
2013-01-14 08:55:00,38.9,35.0,30.05,NW,308,2.0,-999.0,87,-99.99,,,0.00,11,weatherlink.com 1.10,2013-01-14 13:55:00,
2013-01-14 09:10:00,38.8,35.0,30.06,WNW,296,2.0,-999.0,86,-99.99,,,0.00,11,weatherlink.com 1.10,2013-01-14 14:10:00,
2013-01-14 09:25:00,38.6,35.0,30.07,North,3,7.0,-999.0,86,-99.99,,,0.00,25,weatherlink.com 1.10,2013-01-14 14:25:00,
2013-01-14 09:41:00,38.5,34.0,30.08,NW,309,5.0,-999.0,85,-99.99,,,0.00,25,weatherlink.com 1.10,2013-01-14 14:41:00,
2013-01-14 09:56:00,38.5,34.0,30.08,NW,309,5.0,-999.0,84,-99.99,,,0.00,28,weatherlink.com 1.10,2013-01-14 14:56:00,
2013-01-14 10:11:00,38.0,33.0,30.09,WNW,291,7.0,-999.0,81,-99.99,,,0.00,63,weatherlink.com 1.10,2013-01-14 15:11:00,
2013-01-14 10:26:00,38.2,33.0,30.10,WNW,288,5.0,-999.0,80,-99.99,,,0.00,127,weatherlink.com 1.10,2013-01-14 15:26:00,
2013-01-14 10:41:00,38.3,32.0,30.11,WNW,291,6.0,-999.0,78,-99.99,,,0.00,97,weatherlink.com 1.10,2013-01-14 15:41:00,
2013-01-14 10:56:00,38.0,31.0,30.11,NW,309,11.0,-999.0,75,-99.99,,,0.00,74,weatherlink.com 1.10,2013-01-14 15:56:00,
2013-01-14 11:11:00,37.8,30.0,30.12,NNW,328,5.0,-999.0,72,-99.99,,,0.00,102,weatherlink.com 1.10,2013-01-14 16:11:00,
2013-01-14 11:41:00,37.5,30.0,30.13,WNW,285,2.0,-999.0,73,-99.99,,,0.00,113,weatherlink.com 1.10,2013-01-14 16:41:00,
2013-01-14 11:56:00,37.2,29.0,30.13,NNW,340,9.0,-999.0,72,-99.99,,,0.00,160,weatherlink.com 1.10,2013-01-14 16:56:00,
2013-01-14 12:11:00,37.0,28.0,30.13,North,357,7.0,-999.0,70,-99.99,,,0.00,118,weatherlink.com 1.10,2013-01-14 17:11:00,
2013-01-14 12:26:00,36.9,27.0,30.14,West,281,6.0,-999.0,67,-99.99,,,0.00,164,weatherlink.com 1.10,2013-01-14 17:26:00,
2013-01-14 12:41:00,36.9,27.0,30.14,NW,319,10.0,-999.0,68,-99.99,,,0.00,116,weatherlink.com 1.10,2013-01-14 17:41:00,
2013-01-14 12:56:00,36.6,25.0,30.14,NNW,335,12.0,-999.0,64,-99.99,,,0.00,141,weatherlink.com 1.10,2013-01-14 17:56:00,
2013-01-14 13:11:00,36.6,25.0,30.15,NNW,329,7.0,-999.0,64,-99.99,,,0.00,144,weatherlink.com 1.10,2013-01-14 18:11:00,
2013-01-14 13:26:00,36.5,24.0,30.14,NNW,336,7.0,-999.0,62,-99.99,,,0.00,118,weatherlink.com 1.10,2013-01-14 18:26:00,
2013-01-14 13:41:00,36.2,25.0,30.15,WNW,295,6.0,-999.0,63,-99.99,,,0.00,69,weatherlink.com 1.10,2013-01-14 18:41:00,
2013-01-14 13:56:00,35.6,24.0,30.16,West,280,5.0,-999.0,63,-99.99,,,0.00,69,weatherlink.com 1.10,2013-01-14 18:56:00,
2013-01-14 14:11:00,35.2,23.0,30.18,NNW,332,9.0,-999.0,62,-99.99,,,0.00,88,weatherlink.com 1.10,2013-01-14 19:11:00,
2013-01-14 14:26:00,35.0,23.0,30.18,NNW,329,8.0,-999.0,63,-99.99,,,0.00,86,weatherlink.com 1.10,2013-01-14 19:26:00,
2013-01-14 14:41:00,34.7,24.0,30.18,West,274,11.0,-999.0,64,-99.99,,,0.00,67,weatherlink.com 1.10,2013-01-14 19:41:00,
2013-01-14 14:56:00,34.3,23.0,30.19,North,353,7.0,-999.0,63,-99.99,,,0.00,67,weatherlink.com 1.10,2013-01-14 19:56:00,
2013-01-14 15:11:00,34.0,23.0,30.19,West,278,10.0,-999.0,64,-99.99,,,0.00,40,weatherlink.com 1.10,2013-01-14 20:11:00,
2013-01-14 15:26:00,33.7,23.0,30.19,West,281,5.0,-999.0,65,-99.99,,,0.00,28,weatherlink.com 1.10,2013-01-14 20:26:00,
2013-01-14 15:41:00,33.4,23.0,30.20,NW,313,7.0,-999.0,65,-99.99,,,0.00,21,weatherlink.com 1.10,2013-01-14 20:41:00,
2013-01-14 16:11:00,33.1,23.0,30.19,NW,305,6.0,-999.0,66,-99.99,,,0.00,5,weatherlink.com 1.10,2013-01-14 21:11:00,
2013-01-14 16:26:00,32.8,23.0,30.19,WNW,296,2.0,-999.0,66,-99.99,,,0.00,0,weatherlink.com 1.10,2013-01-14 21:26:00,
2013-01-14 16:41:00,32.7,22.0,30.18,NW,304,3.0,-999.0,66,-99.99,,,0.00,0,weatherlink.com 1.10,2013-01-14 21:41:00,
2013-01-14 16:56:00,32.5,22.0,30.18,NW,319,1.0,-999.0,66,-99.99,,,0.00,0,weatherlink.com 1.10,2013-01-14 21:56:00,
2013-01-14 17:11:00,32.4,22.0,30.18,NNW,333,6.0,-999.0,65,-99.99,,,0.00,0,weatherlink.com 1.10,2013-01-14 22:11:00,
2013-01-14 17:27:00,32.2,22.0,30.20,WNW,299,4.0,-999.0,66,-99.99,,,0.00,0,weatherlink.com 1.10,2013-01-14 22:27:00,
2013-01-14 17:42:00,32.2,22.0,30.22,NW,318,5.0,-999.0,67,-99.99,,,0.00,0,weatherlink.com 1.10,2013-01-14 22:42:00,
2013-01-14 17:57:00,32.1,22.0,30.22,NNW,328,10.0,-999.0,67,-99.99,,,0.00,0,weatherlink.com 1.10,2013-01-14 22:57:00,
2013-01-14 18:12:00,32.1,22.0,30.26,NW,304,7.0,-999.0,66,-99.99,,,0.00,0,weatherlink.com 1.10,2013-01-14 23:12:00,
2013-01-14 18:27:00,31.9,22.0,30.26,NW,322,6.0,-999.0,67,-99.99,,,0.00,0,weatherlink.com 1.10,2013-01-14 23:27:00,
2013-01-14 18:42:00,31.8,22.0,30.25,WNW,295,10.0,-999.0,67,-99.99,,,0.00,0,weatherlink.com 1.10,2013-01-14 23:42:00,
2013-01-14 18:57:00,31.6,22.0,30.24,NNW,329,6.0,-999.0,69,-99.99,,,0.00,0,weatherlink.com 1.10,2013-01-14 23:57:00,
2013-01-14 19:12:00,31.5,22.0,30.24,NW,326,6.0,-999.0,69,-99.99,,,0.00,0,weatherlink.com 1.10,2013-01-15 00:12:00,
2013-01-14 19:27:00,31.3,22.0,30.26,NW,315,6.0,-999.0,69,-99.99,,,0.00,0,weatherlink.com 1.10,2013-01-15 00:27:00,
2013-01-14 19:42:00,31.2,22.0,30.26,WNW,298,2.0,-999.0,69,-99.99,,,0.00,0,weatherlink.com 1.10,2013-01-15 00:42:00,
2013-01-14 19:57:00,31.0,22.0,30.26,NNW,328,6.0,-999.0,69,-99.99,,,0.00,0,weatherlink.com 1.10,2013-01-15 00:57:00,
2013-01-14 20:12:00,30.9,22.0,30.27,NNW,329,5.0,-999.0,70,-99.99,,,0.00,0,weatherlink.com 1.10,2013-01-15 01:12:00,
2013-01-14 20:27:00,30.7,21.0,30.26,NW,318,4.0,-999.0,68,-99.99,,,0.00,0,weatherlink.com 1.10,2013-01-15 01:27:00,
2013-01-14 20:42:00,30.7,21.0,30.25,NW,304,3.0,-999.0,68,-99.99,,,0.00,0,weatherlink.com 1.10,2013-01-15 01:42:00,
2013-01-14 20:57:00,30.6,21.0,30.24,NW,306,5.0,-999.0,67,-99.99,,,0.00,0,weatherlink.com 1.10,2013-01-15 01:57:00,
2013-01-14 21:12:00,30.6,21.0,30.24,WSW,254,0.0,-999.0,67,-99.99,,,0.00,0,weatherlink.com 1.10,2013-01-15 02:12:00,
2013-01-14 21:27:00,30.4,21.0,30.24,NW,306,1.0,-999.0,67,-99.99,,,0.00,0,weatherlink.com 1.10,2013-01-15 02:27:00,
2013-01-14 21:42:00,30.4,21.0,30.24,WNW,285,0.0,-999.0,67,-99.99,,,0.00,0,weatherlink.com 1.10,2013-01-15 02:42:00,
2013-01-14 21:57:00,30.4,21.0,30.24,West,264,0.0,-999.0,67,-99.99,,,0.00,0,weatherlink.com 1.10,2013-01-15 02:57:00,
2013-01-14 22:12:00,30.4,20.0,30.24,WSW,251,5.0,-999.0,66,-99.99,,,0.00,0,weatherlink.com 1.10,2013-01-15 03:12:00,
2013-01-14 22:27:00,30.3,19.0,30.25,NW,309,7.0,-999.0,64,-99.99,,,0.00,0,weatherlink.com 1.10,2013-01-15 03:27:00,
2013-01-14 22:42:00,30.3,19.0,30.28,WNW,302,3.0,-999.0,64,-99.99,,,0.00,0,weatherlink.com 1.10,2013-01-15 03:42:00,
2013-01-14 22:57:00,30.3,19.0,30.27,NW,322,3.0,-999.0,64,-99.99,,,0.00,0,weatherlink.com 1.10,2013-01-15 03:57:00,
2013-01-14 23:12:00,30.3,19.0,30.26,NNW,335,7.0,-999.0,64,-99.99,,,0.00,0,weatherlink.com 1.10,2013-01-15 04:12:00,
2013-01-14 23:28:00,30.1,19.0,30.26,NW,326,5.0,-999.0,64,-99.99,,,0.00,0,weatherlink.com 1.10,2013-01-15 04:28:00,
2013-01-14 23:42:00,30.1,19.0,30.27,NW,308,1.0,-999.0,64,-99.99,,,0.00,0,weatherlink.com 1.10,2013-01-15 04:42:00,
2013-01-14 23:57:00,30.0,19.0,30.25,NW,322,3.0,-999.0,64,-99.99,,,0.00,0,weatherlink.com 1.10,2013-01-15 04:57:00,